QPF
0.02 0.03 0.03 0.06 0.10 0.13 0.18 0.23 0.25 0.25 0.22 0.17 0.14 0.10 0.08 0.06 0.04 0.06 0.07 0.10 0.11 0.14 0.17 0.14 0.10 0.06 0.03 0.01 0.01 0.01 0.02 0.02 0.01 0.01 0.01 0.00 0.00 0.00 0.00 0.00 0.00 0.00 0.00
0.01 0.01 0.02 0.04 0.07 0.12 0.17 0.24 0.31 0.37 0.37 0.33 0.27 0.20 0.17 0.17 0.14 0.14 0.17 0.17 0.18 0.16 0.17 0.19 0.15 0.10 0.06 0.03 0.02 0.01 0.01 0.02 0.01 0.01 0.01 0.01 0.01 0.00 0.00 0.00 0.00 0.00 0.00
0.01 0.01 0.01 0.01 0.03 0.07 0.11 0.18 0.25 0.34 0.40 0.40 0.33 0.28 0.24 0.22 0.24 0.20 0.19 0.19 0.18 0.20 0.18 0.17 0.16 0.12 0.08 0.06 0.03 0.02 0.01 0.02 0.02 0.01 0.01 0.01 0.01 0.01 0.01 0.00 0.00 0.00 0.00
0.01 0.01 0.00 0.01 0.04 0.07 0.09 0.12 0.21 0.28 0.33 0.40 0.42 0.36 0.31 0.27 0.26 0.27 0.28 0.24 0.23 0.21 0.19 0.20 0.18 0.14 0.12 0.10 0.06 0.04 0.03 0.02 0.02 0.01 0.01 0.01 0.01 0.01 0.01 0.01 0.01 0.00 0.00
0.01 0.00 0.00 0.00 0.02 0.04 0.07 0.10 0.16 0.23 0.28 0.33 0.37 0.37 0.33 0.28 0.25 0.26 0.31 0.29 0.25 0.30 0.29 0.25 0.25 0.19 0.14 0.12 0.11 0.09 0.08 0.05 0.03 0.02 0.01 0.01 0.02 0.02 0.02 0.02 0.02 0.01 0.00
0.00 0.00 0.00 0.00 0.02 0.05 0.08 0.10 0.13 0.19 0.26 0.32 0.38 0.39 0.33 0.28 0.24 0.21 0.20 0.23 0.23 0.23 0.29 0.33 0.27 0.20 0.17 0.14 0.14 0.13 0.12 0.10 0.07 0.03 0.02 0.01 0.02 0.02 0.01 0.01 0.03 0.03 0.02
0.01 0.01 0.00 0.00 0.01 0.02 0.04 0.06 0.10 0.16 0.21 0.28 0.35 0.36 0.32 0.28 0.24 0.20 0.18 0.16 0.16 0.17 0.22 0.34 0.36 0.22 0.10 0.09 0.08 0.08 0.09 0.11 0.10 0.06 0.03 0.01 0.01 0.01 0.00 0.00 0.01 0.02 0.02
0.00 0.00 0.00 0.00 0.01 0.03 0.05 0.07 0.11 0.16 0.21 0.26 0.31 0.31 0.26 0.23 0.18 0.14 0.13 0.12 0.11 0.14 0.19 0.24 0.27 0.22 0.13 0.07 0.03 0.04 0.06 0.07 0.08 0.08 0.05 0.03 0.02 0.01 0.00 0.00 0.00 0.01 0.01
0.00 0.00 0.00 0.01 0.01 0.01 0.02 0.05 0.08 0.11 0.15 0.19 0.25 0.28 0.23 0.19 0.15 0.13 0.11 0.09 0.09 0.10 0.15 0.24 0.23 0.15 0.12 0.08 0.04 0.03 0.04 0.04 0.06 0.08 0.07 0.05 0.03 0.01 0.01 0.01 0.00 0.00 0.01
0.00 0.00 0.00 0.00 0.01 0.01 0.01 0.02 0.03 0.05 0.09 0.11 0.14 0.18 0.17 0.15 0.14 0.14 0.13 0.10 0.10 0.10 0.11 0.17 0.21 0.18 0.10 0.07 0.04 0.02 0.01 0.02 0.04 0.06 0.08 0.07 0.05 0.02 0.01 0.01 0.02 0.02 0.01
0.00 0.00 0.00 0.00 0.01 0.01 0.01 0.02 0.02 0.03 0.04 0.06 0.09 0.12 0.15 0.12 0.11 0.12 0.13 0.11 0.09 0.07 0.08 0.10 0.11 0.13 0.09 0.05 0.02 0.01 0.01 0.02 0.03 0.03 0.05 0.05 0.04 0.03 0.02 0.03 0.06 0.08 0.06
0.00 0.00 0.00 0.00 0.00 0.00 0.01 0.02 0.03 0.04 0.05 0.06 0.07 0.09 0.17 0.20 0.13 0.11 0.11 0.11 0.10 0.06 0.05 0.06 0.07 0.05 0.04 0.02 0.01 0.00 0.01 0.01 0.01 0.01 0.02 0.03 0.03 0.03 0.02 0.02 0.05 0.08 0.11
0.00 0.00 0.00 0.00 0.00 0.00 0.00 0.00 0.01 0.02 0.04 0.07 0.08 0.08 0.12 0.21 0.20 0.14 0.13 0.12 0.11 0.08 0.06 0.05 0.06 0.03 0.02 0.01 0.01 0.01 0.01 0.01 0.01 0.00 0.01 0.01 0.02 0.02 0.02 0.01 0.02 0.05 0.09
0.00 0.00 0.00 0.00 0.00 0.00 0.00 0.00 0.00 0.00 0.01 0.04 0.07 0.09 0.10 0.14 0.23 0.22 0.17 0.14 0.13 0.12 0.12 0.09 0.07 0.04 0.02 0.01 0.01 0.01 0.01 0.01 0.00 0.00 0.00 0.00 0.00 0.01 0.01 0.01 0.01 0.01 0.03
0.00 0.00 0.00 0.00 0.00 0.00 0.00 0.00 0.00 0.00 0.00 0.01 0.03 0.05 0.08 0.08 0.13 0.17 0.17 0.17 0.17 0.15 0.13 0.13 0.12 0.08 0.05 0.02 0.01 0.01 0.01 0.01 0.00 0.00 0.00 0.00 0.00 0.00 0.00 0.00 0.00 0.00 0.01
0.00 0.00 0.00 0.00 0.00 0.00 0.00 0.00 0.00 0.00 0.00 0.00 0.01 0.01 0.04 0.07 0.08 0.11 0.14 0.17 0.19 0.17 0.13 0.11 0.11 0.11 0.10 0.05 0.02 0.01 0.01 0.00 0.00 0.00 0.00 0.00 0.00 0.00 0.00 0.00 0.00 0.00 0.00
0.00 0.00 0.00 0.00 0.00 0.00 0.00 0.00 0.00 0.00 0.01 0.01 0.01 0.00 0.01 0.03 0.06 0.08 0.11 0.15 0.18 0.18 0.15 0.13 0.15 0.18 0.15 0.07 0.03 0.02 0.01 0.00 0.00 0.00 0.00 0.00 0.00 0.00 0.00 0.00 0.00 0.00 0.00
0.00 0.00 0.00 0.00 0.00 0.00 0.00 0.00 0.00 0.00 0.01 0.01 0.01 0.01 0.01 0.01 0.02 0.05 0.07 0.10 0.14 0.17 0.17 0.17 0.19 0.23 0.19 0.12 0.06 0.03 0.01 0.00 0.00 0.00 0.00 0.00 0.00 0.00 0.00 0.00 0.00 0.00 0.00
0.00 0.00 0.00 0.00 0.00 0.00 0.00 0.00 0.00 0.00 0.01 0.01 0.02 0.02 0.01 0.01 0.01 0.02 0.04 0.07 0.10 0.15 0.19 0.20 0.24 0.29 0.29 0.21 0.09 0.03 0.01 0.00 0.00 0.00 0.00 0.00 0.00 0.00 0.00 0.00 0.00 0.00 0.00
0.00 0.00 0.00 0.00 0.00 0.00 0.00 0.00 0.00 0.00 0.01 0.02 0.02 0.02 0.02 0.01 0.01 0.01 0.01 0.03 0.07 0.11 0.17 0.21 0.27 0.35 0.36 0.31 0.15 0.05 0.03 0.01 0.00 0.00 0.01 0.01 0.01 0.01 0.01 0.01 0.00 0.00 0.00
0.00 0.00 0.00 0.00 0.00 0.00 0.00 0.00 0.00 0.00 0.01 0.02 0.02 0.03 0.03 0.02 0.01 0.01 0.01 0.01 0.03 0.06 0.12 0.18 0.25 0.35 0.38 0.31 0.15 0.08 0.06 0.03 0.01 0.00 0.00 0.00 0.00 0.00 0.01 0.01 0.01 0.01 0.01
0.00 0.00 0.00 0.00 0.00 0.00 0.00 0.00 0.00 0.00 0.01 0.02 0.02 0.03 0.03 0.03 0.03 0.02 0.01 0.01 0.01 0.03 0.06 0.11 0.18 0.29 0.36 0.32 0.23 0.14 0.08 0.05 0.02 0.01 0.00 0.01 0.01 0.00 0.00 0.00 0.01 0.01 0.01
0.00 0.00 0.00 0.00 0.00 0.00 0.00 0.00 0.00 0.00 0.01 0.01 0.02 0.03 0.02 0.02 0.03 0.03 0.02 0.02 0.01 0.01 0.03 0.07 0.13 0.19 0.33 0.42 0.35 0.18 0.10 0.07 0.03 0.01 0.00 0.01 0.01 0.01 0.01 0.01 0.02 0.01 0.01
0.00 0.00 0.00 0.00 0.00 0.00 0.00 0.00 0.00 0.00 0.00 0.01 0.02 0.03 0.03 0.03 0.04 0.05 0.05 0.03 0.01 0.01 0.01 0.02 0.06 0.13 0.26 0.43 0.53 0.36 0.20 0.12 0.06 0.03 0.01 0.01 0.01 0.01 0.01 0.01 0.03 0.02 0.01
0.00 0.00 0.00 0.00 0.00 0.00 0.00 0.00 0.00 0.00 0.00 0.01 0.02 0.03 0.04 0.03 0.03 0.06 0.07 0.05 0.03 0.01 0.01 0.01 0.03 0.09 0.20 0.36 0.51 0.55 0.32 0.15 0.09 0.06 0.02 0.00 0.00 0.00 0.01 0.01 0.02 0.03 0.02
0.00 0.00 0.00 0.01 0.01 0.01 0.01 0.00 0.00 0.00 0.01 0.01 0.02 0.04 0.06 0.06 0.06 0.06 0.07 0.07 0.05 0.02 0.02 0.01 0.02 0.06 0.13 0.25 0.40 0.48 0.42 0.24 0.10 0.07 0.03 0.01 0.00 0.00 0.01 0.01 0.01 0.01 0.01
MSLP
1013.64 1013.63 1013.55 1013.41 1013.22 1013.02 1012.83 1012.66 1012.53 1012.45 1012.42 1012.44 1012.50 1012.60 1012.73 1012.87 1013.01 1013.14 1013.27 1013.40 1013.53 1013.69 1013.89 1014.15 1014.48 1014.88 1015.33 1015.81 1016.29 1016.76 1017.19 1017.58 1017.93 1018.26 1018.58 1018.91 1019.24 1019.59 1019.93 1020.24 1020.52 1020.76 1020.96
1013.41 1013.38 1013.29 1013.15 1012.96 1012.74 1012.50 1012.27 1012.07 1011.92 1011.83 1011.80 1011.84 1011.93 1012.06 1012.21 1012.36 1012.50 1012.62 1012.73 1012.85 1013.00 1013.20 1013.48 1013.84 1014.27 1014.75 1015.26 1015.77 1016.25 1016.69 1017.10 1017.47 1017.82 1018.18 1018.55 1018.94 1019.34 1019.72 1020.07 1020.37 1020.62 1020.82
1013.19 1013.13 1013.03 1012.89 1012.71 1012.48 1012.21 1011.93 1011.67 1011.44 1011.29 1011.21 1011.22 1011.30 1011.43 1011.59 1011.74 1011.88 1011.99 1012.08 1012.18 1012.32 1012.52 1012.80 1013.17 1013.63 1014.14 1014.69 1015.22 1015.72 1016.18 1016.60 1016.98 1017.36 1017.75 1018.16 1018.59 1019.03 1019.45 1019.84 1020.16 1020.43 1020.64
1012.99 1012.89 1012.79 1012.66 1012.49 1012.25 1011.97 1011.65 1011.33 1011.05 1010.83 1010.71 1010.69 1010.76 1010.88 1011.04 1011.20 1011.33 1011.42 1011.49 1011.57 1011.68 1011.86 1012.14 1012.52 1013.00 1013.54 1014.10 1014.66 1015.18 1015.66 1016.08 1016.48 1016.88 1017.29 1017.72 1018.18 1018.65 1019.11 1019.52 1019.88 1020.17 1020.40
1012.82 1012.69 1012.58 1012.46 1012.30 1012.07 1011.78 1011.43 1011.07 1010.74 1010.48 1010.32 1010.27 1010.32 1010.45 1010.61 1010.76 1010.88 1010.95 1011.00 1011.04 1011.12 1011.28 1011.54 1011.91 1012.39 1012.94 1013.52 1014.09 1014.63 1015.12 1015.55 1015.96 1016.36 1016.78 1017.23 1017.71 1018.20 1018.68 1019.12 1019.50 1019.82 1020.08
1012.69 1012.52 1012.40 1012.29 1012.14 1011.93 1011.64 1011.28 1010.90 1010.54 1010.24 1010.06 1009.99 1010.03 1010.15 1010.30 1010.45 1010.56 1010.61 1010.62 1010.62 1010.66 1010.78 1011.00 1011.35 1011.81 1012.36 1012.94 1013.52 1014.06 1014.55 1014.99 1015.40 1015.81 1016.23 1016.68 1017.16 1017.66 1018.16 1018.62 1019.03 1019.38 1019.68
1012.61 1012.40 1012.27 1012.16 1012.03 1011.83 1011.55 1011.20 1010.81 1010.43 1010.12 1009.92 1009.84 1009.88 1010.00 1010.15 1010.29 1010.37 1010.39 1010.36 1010.32 1010.30 1010.36 1010.54 1010.85 1011.27 1011.79 1012.35 1012.92 1013.45 1013.94 1014.38 1014.79 1015.19 1015.61 1016.06 1016.55 1017.06 1017.56 1018.04 1018.48 1018.86 1019.20
1012.57 1012.32 1012.18 1012.07 1011.95 1011.77 1011.51 1011.17 1010.79 1010.42 1010.11 1009.91 1009.83 1009.86 1009.98 1010.12 1010.24 1010.30 1010.29 1010.21 1010.11 1010.04 1010.03 1010.14 1010.39 1010.76 1011.23 1011.75 1012.29 1012.80 1013.28 1013.71 1014.12 1014.52 1014.94 1015.39 1015.88 1016.39 1016.91 1017.40 1017.86 1018.28 1018.64
1012.56 1012.29 1012.14 1012.03 1011.92 1011.75 1011.51 1011.19 1010.83 1010.47 1010.18 1009.99 1009.92 1009.95 1010.06 1010.19 1010.29 1010.32 1010.26 1010.14 1009.98 1009.84 1009.77 1009.80 1009.97 1010.27 1010.67 1011.14 1011.63 1012.12 1012.57 1013.00 1013.40 1013.80 1014.22 1014.68 1015.17 1015.69 1016.22 1016.73 1017.21 1017.65 1018.05
1012.59 1012.31 1012.14 1012.03 1011.92 1011.77 1011.54 1011.24 1010.90 1010.57 1010.30 1010.13 1010.06 1010.09 1010.19 1010.30 1010.37 1010.37 1010.27 1010.10 1009.89 1009.68 1009.54 1009.50 1009.59 1009.81 1010.14 1010.54 1010.98 1011.42 1011.84 1012.25 1012.65 1013.06 1013.49 1013.96 1014.46 1014.99 1015.53 1016.06 1016.56 1017.02 1017.43
1012.64 1012.36 1012.19 1012.07 1011.95 1011.80 1011.58 1011.30 1010.99 1010.68 1010.44 1010.27 1010.21 1010.24 1010.32 1010.40 1010.44 1010.40 1010.27 1010.06 1009.80 1009.55 1009.35 1009.24 1009.26 1009.40 1009.65 1009.98 1010.36 1010.75 1011.14 1011.53 1011.92 1012.33 1012.77 1013.25 1013.77 1014.31 1014.87 1015.41 1015.92 1016.39 1016.81
1012.71 1012.44 1012.26 1012.13 1012.00 1011.83 1011.62 1011.35 1011.05 1010.77 1010.54 1010.39 1010.33 1010.34 1010.40 1010.46 1010.47 1010.40 1010.23 1010.00 1009.71 1009.43 1009.19 1009.04 1009.00 1009.07 1009.25 1009.51 1009.82 1010.16 1010.52 1010.88 1011.27 1011.68 1012.12 1012.61 1013.14 1013.69 1014.24 1014.79 1015.30 1015.77 1016.20
1012.78 1012.52 1012.33 1012.18 1012.03 1011.85 1011.62 1011.36 1011.07 1010.80 1010.59 1010.45 1010.38 1010.38 1010.41 1010.44 1010.42 1010.33 1010.15 1009.90 1009.61 1009.32 1009.07 1008.90 1008.82 1008.85 1008.97 1009.17 1009.42 1009.71 1010.03 1010.37 1010.73 1011.13 1011.58 1012.06 1012.58 1013.13 1013.67 1014.21 1014.71 1015.18 1015.60
1012.83 1012.58 1012.38 1012.20 1012.02 1011.82 1011.58 1011.30 1011.03 1010.77 1010.56 1010.43 1010.36 1010.34 1010.35 1010.35 1010.32 1010.21 1010.03 1009.79 1009.52 1009.24 1009.01 1008.83 1008.75 1008.75 1008.84 1008.99 1009.19 1009.44 1009.71 1010.02 1010.36 1010.74 1011.17 1011.63 1012.13 1012.65 1013.17 1013.68 1014.16 1014.60 1015.02
1012.82 1012.58 1012.36 1012.16 1011.95 1011.72 1011.46 1011.18 1010.91 1010.66 1010.47 1010.33 1010.26 1010.23 1010.23 1010.21 1010.16 1010.06 1009.89 1009.68 1009.44 1009.20 1009.00 1008.85 1008.77 1008.77 1008.84 1008.96 1009.13 1009.34 1009.58 1009.86 1010.17 1010.52 1010.91 1011.34 1011.80 1012.27 1012.75 1013.20 1013.64 1014.06 1014.45
1012.71 1012.48 1012.25 1012.02 1011.78 1011.53 1011.26 1010.98 1010.72 1010.48 1010.30 1010.18 1010.10 1010.07 1010.06 1010.03 1009.98 1009.88 1009.74 1009.56 1009.37 1009.18 1009.03 1008.92 1008.87 1008.89 1008.95 1009.07 1009.22 1009.40 1009.62 1009.86 1010.15 1010.46 1010.82 1011.20 1011.60 1012.01 1012.42 1012.81 1013.19 1013.56 1013.93
1012.49 1012.25 1012.01 1011.77 1011.51 1011.24 1010.97 1010.70 1010.45 1010.24 1010.08 1009.97 1009.91 1009.88 1009.87 1009.84 1009.79 1009.71 1009.60 1009.46 1009.31 1009.18 1009.07 1009.01 1009.00 1009.04 1009.12 1009.24 1009.39 1009.56 1009.77 1010.00 1010.26 1010.55 1010.87 1011.20 1011.54 1011.88 1012.21 1012.53 1012.84 1013.16 1013.49
1012.13 1011.89 1011.65 1011.39 1011.13 1010.86 1010.59 1010.35 1010.13 1009.95 1009.81 1009.73 1009.68 1009.66 1009.65 1009.63 1009.59 1009.52 1009.43 1009.33 1009.23 1009.14 1009.08 1009.06 1009.09 1009.16 1009.26 1009.40 1009.56 1009.75 1009.96 1010.20 1010.46 1010.74 1011.03 1011.32 1011.61 1011.88 1012.14 1012.39 1012.63 1012.88 1013.17
1011.65 1011.41 1011.16 1010.90 1010.64 1010.39 1010.14 1009.93 1009.74 1009.60 1009.50 1009.44 1009.41 1009.40 1009.40 1009.38 1009.35 1009.29 1009.22 1009.14 1009.08 1009.03 1009.01 1009.02 1009.08 1009.18 1009.31 1009.48 1009.67 1009.89 1010.13 1010.39 1010.68 1010.97 1011.26 1011.54 1011.80 1012.03 1012.23 1012.42 1012.59 1012.79 1013.02
1011.06 1010.82 1010.57 1010.32 1010.08 1009.84 1009.63 1009.44 1009.29 1009.18 1009.11 1009.07 1009.06 1009.06 1009.06 1009.05 1009.02 1008.98 1008.92 1008.87 1008.82 1008.80 1008.80 1008.85 1008.93 1009.06 1009.22 1009.42 1009.65 1009.92 1010.21 1010.53 1010.86 1011.20 1011.53 1011.83 1012.09 1012.31 1012.48 1012.63 1012.76 1012.90 1013.08
1010.40 1010.16 1009.92 1009.68 1009.45 1009.23 1009.04 1008.88 1008.76 1008.67 1008.62 1008.60 1008.60 1008.60 1008.61 1008.60 1008.58 1008.54 1008.50 1008.46 1008.43 1008.43 1008.46 1008.52 1008.63 1008.78 1008.97 1009.20 1009.48 1009.81 1010.17 1010.56 1010.97 1011.38 1011.77 1012.13 1012.44 1012.68 1012.87 1013.01 1013.12 1013.23 1013.37
1009.72 1009.47 1009.23 1009.00 1008.78 1008.58 1008.40 1008.25 1008.14 1008.06 1008.01 1007.99 1007.99 1007.99 1008.00 1007.99 1007.98 1007.95 1007.93 1007.91 1007.90 1007.92 1007.97 1008.05 1008.18 1008.35 1008.57 1008.84 1009.17 1009.55 1009.99 1010.46 1010.96 1011.47 1011.96 1012.41 1012.79 1013.11 1013.34 1013.51 1013.63 1013.74 1013.85
1009.05 1008.79 1008.54 1008.31 1008.08 1007.88 1007.70 1007.55 1007.43 1007.34 1007.28 1007.24 1007.22 1007.22 1007.22 1007.21 1007.21 1007.21 1007.21 1007.22 1007.24 1007.29 1007.37 1007.47 1007.62 1007.82 1008.06 1008.37 1008.74 1009.18 1009.68 1010.23 1010.83 1011.44 1012.04 1012.60 1013.09 1013.50 1013.82 1014.06 1014.23 1014.36 1014.48
1008.42 1008.14 1007.87 1007.61 1007.38 1007.16 1006.96 1006.78 1006.63 1006.51 1006.42 1006.36 1006.32 1006.29 1006.29 1006.29 1006.31 1006.33 1006.37 1006.42 1006.49 1006.58 1006.70 1006.84 1007.01 1007.23 1007.50 1007.83 1008.23 1008.71 1009.26 1009.89 1010.56 1011.27 1011.98 1012.65 1013.26 1013.79 1014.22 1014.56 1014.81 1015.00 1015.16
1007.82 1007.51 1007.21 1006.93 1006.67 1006.42 1006.18 1005.97 1005.79 1005.62 1005.49 1005.39 1005.32 1005.28 1005.26 1005.28 1005.32 1005.38 1005.47 1005.58 1005.71 1005.85 1006.01 1006.20 1006.40 1006.64 1006.93 1007.27 1007.69 1008.19 1008.77 1009.43 1010.17 1010.95 1011.75 1012.52 1013.25 1013.90 1014.45 1014.91 1015.26 1015.54 1015.77
1007.24 1006.89 1006.56 1006.25 1005.95 1005.67 1005.41 1005.16 1004.93 1004.73 1004.56 1004.42 1004.32 1004.25 1004.24 1004.26 1004.32 1004.43 1004.57 1004.74 1004.93 1005.14 1005.36 1005.58 1005.83 1006.09 1006.39 1006.73 1007.15 1007.64 1008.23 1008.90 1009.67 1010.49 1011.34 1012.20 1013.02 1013.78 1014.45 1015.03 1015.50 1015.89 1016.21
Thickness
5744 5741 5739 5737 5736 5735 5735 5735 5734 5732 5730 5728 5727 5727 5728 5729 5731 5733 5736 5739 5741 5741 5741 5741 5741 5741 5741 5741 5739 5738 5735 5734 5732 5731 5731 5730 5730 5729 5729 5728 5727 5727 5726
5738 5735 5733 5731 5730 5729 5729 5729 5729 5728 5727 5725 5725 5725 5725 5726 5727 5730 5733 5735 5737 5739 5739 5739 5739 5739 5739 5739 5738 5737 5735 5733 5732 5730 5730 5729 5729 5729 5729 5728 5727 5727 5726
5731 5729 5727 5725 5724 5723 5723 5723 5724 5724 5723 5722 5721 5722 5722 5723 5725 5727 5729 5731 5734 5736 5736 5738 5738 5738 5738 5738 5737 5736 5735 5734 5732 5730 5729 5728 5728 5729 5728 5728 5727 5727 5726
5724 5722 5720 5719 5718 5717 5717 5717 5717 5718 5718 5718 5718 5718 5720 5720 5722 5724 5726 5728 5730 5732 5734 5736 5736 5737 5737 5737 5737 5736 5735 5734 5732 5730 5728 5728 5727 5727 5728 5727 5727 5727 5726
5717 5715 5714 5712 5712 5711 5711 5711 5711 5711 5712 5714 5714 5715 5717 5718 5720 5721 5722 5724 5727 5729 5731 5733 5734 5735 5736 5737 5737 5736 5735 5734 5732 5730 5728 5727 5727 5727 5727 5727 5727 5726 5726
5709 5708 5706 5706 5705 5704 5704 5704 5704 5705 5706 5708 5710 5711 5713 5716 5717 5718 5720 5721 5724 5726 5728 5731 5733 5734 5735 5736 5737 5736 5736 5735 5733 5731 5729 5727 5727 5726 5726 5726 5726 5725 5725
5699 5698 5698 5698 5698 5697 5697 5697 5697 5698 5700 5702 5701 5703 5707 5711 5714 5717 5718 5719 5721 5724 5726 5728 5730 5731 5733 5734 5736 5737 5736 5736 5734 5732 5730 5728 5727 5726 5725 5725 5725 5725 5724
5689 5689 5689 5689 5689 5689 5689 5689 5690 5690 5693 5695 5693 5693 5695 5700 5707 5713 5715 5716 5718 5721 5724 5726 5728 5729 5731 5734 5736 5737 5737 5736 5735 5733 5731 5729 5728 5726 5725 5724 5724 5724 5723
5679 5680 5681 5682 5682 5681 5681 5681 5682 5682 5683 5685 5687 5686 5685 5688 5697 5705 5710 5713 5715 5717 5721 5724 5727 5728 5729 5732 5734 5737 5738 5737 5735 5733 5731 5730 5728 5726 5725 5724 5723 5722 5722
5669 5670 5672 5673 5673 5673 5673 5673 5675 5675 5675 5676 5678 5681 5682 5684 5686 5691 5701 5707 5711 5714 5718 5721 5724 5726 5728 5730 5732 5735 5737 5737 5735 5733 5731 5730 5728 5727 5726 5724 5723 5722 5721
5660 5660 5661 5662 5662 5663 5664 5665 5666 5667 5668 5669 5670 5673 5675 5678 5681 5682 5687 5695 5702 5709 5714 5718 5721 5724 5727 5728 5730 5733 5735 5735 5734 5732 5730 5729 5728 5727 5726 5725 5723 5722 5721
5650 5650 5651 5651 5651 5652 5653 5655 5657 5659 5661 5662 5664 5666 5668 5670 5673 5676 5679 5684 5691 5700 5708 5713 5717 5721 5724 5726 5729 5730 5732 5733 5732 5731 5730 5729 5728 5727 5726 5725 5724 5722 5721
5639 5639 5640 5640 5641 5642 5644 5645 5647 5650 5652 5655 5657 5659 5663 5666 5668 5670 5672 5677 5682 5691 5700 5707 5713 5717 5721 5723 5725 5727 5729 5730 5731 5730 5729 5729 5728 5727 5726 5725 5724 5723 5721
5631 5631 5630 5630 5631 5632 5634 5635 5637 5640 5643 5646 5649 5652 5655 5659 5662 5665 5666 5669 5672 5679 5688 5696 5704 5711 5716 5719 5721 5723 5725 5727 5728 5728 5727 5727 5726 5726 5726 5725 5724 5723 5722
5624 5624 5622 5621 5621 5622 5623 5625 5626 5629 5632 5636 5639 5643 5646 5651 5655 5658 5661 5663 5664 5667 5673 5684 5693 5701 5707 5711 5715 5717 5720 5722 5723 5724 5724 5724 5724 5724 5725 5725 5723 5722 5721
5616 5614 5612 5611 5611 5611 5612 5614 5615 5618 5621 5625 5628 5632 5636 5641 5645 5649 5652 5656 5659 5661 5665 5675 5683 5692 5698 5702 5705 5709 5712 5715 5717 5718 5720 5721 5721 5722 5723 5723 5722 5721 5720
5606 5604 5603 5602 5601 5601 5601 5602 5604 5606 5609 5612 5616 5620 5625 5630 5634 5638 5642 5647 5651 5655 5658 5666 5675 5682 5686 5691 5694 5698 5702 5705 5708 5711 5714 5717 5718 5720 5721 5722 5721 5721 5720
5598 5595 5594 5592 5591 5591 5591 5591 5592 5595 5597 5599 5603 5607 5612 5617 5622 5627 5631 5637 5642 5647 5651 5656 5664 5671 5676 5681 5685 5688 5691 5696 5700 5704 5708 5712 5714 5716 5718 5719 5719 5719 5718
5590 5587 5585 5583 5582 5581 5581 5581 5581 5583 5584 5587 5590 5593 5598 5603 5608 5614 5620 5625 5631 5637 5643 5648 5654 5662 5667 5671 5675 5678 5681 5686 5691 5696 5700 5705 5708 5711 5714 5715 5716 5716 5716
5582 5580 5577 5575 5573 5572 5571 5570 5570 5571 5572 5574 5576 5580 5584 5589 5595 5601 5607 5613 5619 5625 5632 5639 5645 5652 5658 5661 5667 5669 5671 5676 5681 5686 5691 5696 5700 5704 5707 5709 5711 5711 5711
5577 5573 5570 5567 5565 5562 5561 5560 5558 5558 5558 5559 5562 5565 5569 5575 5582 5588 5595 5601 5607 5614 5621 5629 5635 5642 5648 5652 5658 5662 5664 5667 5671 5677 5682 5686 5691 5695 5697 5701 5703 5705 5705
5569 5566 5562 5559 5556 5555 5554 5551 5548 5545 5544 5544 5546 5549 5553 5560 5567 5575 5583 5590 5597 5604 5611 5618 5626 5633 5642 5648 5652 5655 5658 5660 5663 5669 5674 5675 5680 5683 5687 5691 5695 5697 5698
5563 5559 5555 5551 5548 5546 5544 5541 5539 5536 5533 5532 5532 5534 5539 5547 5552 5559 5567 5576 5585 5594 5603 5610 5617 5625 5634 5642 5647 5650 5653 5655 5659 5663 5665 5665 5668 5671 5675 5680 5685 5688 5689
5557 5553 5549 5546 5542 5540 5537 5534 5530 5527 5524 5522 5521 5522 5524 5529 5535 5542 5549 5559 5569 5580 5591 5601 5610 5618 5625 5634 5641 5646 5648 5647 5649 5653 5658 5657 5658 5660 5664 5669 5673 5677 5680
5553 5548 5544 5541 5537 5535 5531 5527 5522 5518 5514 5513 5511 5511 5512 5516 5522 5527 5533 5543 5554 5565 5576 5586 5596 5606 5615 5624 5631 5634 5636 5638 5641 5644 5649 5652 5650 5649 5652 5656 5661 5665 5669
5548 5545 5541 5536 5532 5529 5525 5520 5515 5510 5506 5504 5502 5502 5504 5506 5509 5514 5521 5530 5540 5552 5562 5572 5582 5592 5602 5612 5621 5628 5634 5636 5639 5639 5643 5645 5644 5644 5643 5645 5649 5653 5657